[[{"header":{"parameterUnit":"m.s-1","parameterCategory":1,"la1":30.2991,"la2":30.254,"lo1":-89.0895,"lo2":-89.0444,"dy":0.0017,"dx":0.0017,"nx":28,"ny":28,"refTime":"2026-02-10T09:00:00:Z","depth":0,"parameterNumber":2,"parameterNumberName":"U-component_of_WINDS"},"data":[0,0,0,0,0,0,0,0,0,0,0,0,0,0,0,0,0,0,0,0,0,0,0,0,0,0,0,0,0,0,0,0,0,0,0,0,0,0,0,0,0,0,0,0,0,0,0,0,0,0,0,0,0,0,0,0,0,0,-1.8415,-1.8415,0,-1.8449,-1.845,-1.845,-1.8424,-1.8423,-1.8422,-1.8421,-1.8456,-1.8458,-1.846,0,0,0,0,0,0,0,0,0,0,0,0,0,-1.8325,-1.8327,-1.8415,-1.8415,-1.8415,-1.8449,-1.845,-1.845,-1.8424,-1.8423,-1.8421,-1.842,-1.8455,-1.8457,-1.846,0,0,0,0,0,0,0,0,0,0,0,0,0,-1.8362,-1.8327,-1.8415,-1.8407,-1.8406,-1.8449,-1.845,-1.845,-1.8424,-1.8423,-1.8421,-1.8419,-1.8454,-1.8457,-1.846,-1.8513,0,0,-1.8469,-1.8471,0,0,0,0,0,0,0,0,-1.836,-1.8366,-1.8407,-1.8407,-1.8407,-1.8431,-1.8431,-1.8471,-1.8425,-1.8418,-1.8421,-1.8419,-1.8449,-1.8452,-1.8462,-1.8515,-1.8516,-1.847,-1.8471,-1.8473,-1.8474,0,0,0,0,0,0,0,-1.8358,-1.8364,-1.8428,-1.8408,-1.8408,-1.8401,-1.8405,-1.8439,-1.8442,-1.8418,-1.8416,-1.8421,-1.8448,-1.846,-1.8463,-1.8517,-1.847,-1.8472,-1.8474,-1.8475,-1.8613,-1.8615,0,0,0,0,0,0,-1.8356,-1.8362,-1.8427,-1.8429,-1.8379,-1.8404,-1.8408,-1.8425,-1.8442,-1.8443,-1.8422,-1.8419,-1.8455,-1.846,-1.8464,-1.8526,-1.8473,-1.8475,-1.8477,-1.8611,-1.8614,-1.8616,0,0,0,0,0,0,-1.8354,-1.8362,-1.8426,-1.8395,-1.8403,-1.8407,-1.8427,-1.8426,-1.8437,-1.8445,-1.8445,-1.8433,-1.8454,-1.846,-1.8501,-1.8527,-1.8477,-1.848,-1.8609,-1.8612,-1.8615,-1.8651,0,0,0,0,0,0,-1.8352,-1.8362,-1.8382,-1.8396,-1.8405,-1.8462,-1.8428,-1.8428,-1.8443,-1.8439,-1.8455,-1.8456,-1.8453,-1.8497,-1.8504,-1.853,-1.8482,-1.8607,-1.861,-1.8614,-1.8648,-1.8655,-1.8661,0,0,0,0,0,-1.8349,-1.8391,-1.8383,-1.8391,-1.843,-1.8464,-1.8469,-1.8465,-1.8445,-1.8465,-1.847,-1.8456,-1.8523,-1.8501,-1.8509,-1.8537,-1.8605,-1.8609,-1.8613,-1.8645,-1.8653,-1.8661,0,0,0,0,0,0,-1.8379,-1.8392,-1.8384,-1.8432,-1.8447,-1.8459,-1.8484,-1.8474,-1.8495,-1.8491,-1.8485,-1.8489,-1.8531,-1.8538,-1.8513,-1.8588,-1.8561,-1.8567,-1.8582,-1.859,-1.8597,-1.8594,-1.8484,0,0,0,0,0,-1.8391,-1.8418,-1.8428,-1.8469,-1.8477,-1.848,-1.8494,-1.849,-1.8505,-1.8511,-1.8519,-1.8535,-1.8559,-1.8575,-1.8599,-1.8649,-1.8652,-1.8672,-1.8679,-1.8684,-1.8689,-1.8715,-1.8724,-1.8629,-1.8629,-1.8629,0,0,-1.8417,-1.8427,-1.8444,-1.8476,-1.8487,-1.8514,-1.8485,-1.8515,-1.8535,-1.8516,-1.8555,-1.8561,-1.8578,-1.8624,-1.8644,-1.8631,-1.8716,-1.869,-1.8694,-1.8696,-1.8721,-1.873,-1.8737,-1.8632,-1.8632,-1.8631,0,0,-1.8477,-1.8488,-1.8523,-1.8535,-1.8553,-1.8554,-1.8563,-1.8577,-1.858,-1.862,-1.8605,-1.8629,-1.8672,-1.8684,-1.8696,-1.8762,-1.8749,-1.877,-1.8804,-1.883,-1.8837,-1.8844,-1.8866,-1.8874,-1.8775,-1.8775,-1.8775,0,-1.8506,-1.8547,-1.8542,-1.8574,-1.8588,-1.8572,-1.8607,-1.8619,-1.8643,-1.8653,-1.8638,-1.8691,-1.8701,-1.8749,-1.8765,-1.8776,-1.8785,-1.8767,-1.8837,-1.8843,-1.8849,-1.887,-1.8879,-1.8777,-1.8777,-1.8776,-1.8776,0,-1.8581,-1.861,-1.8636,-1.866,-1.8677,-1.871,-1.8711,-1.8729,-1.8723,-1.8726,-1.8766,-1.8778,-1.8803,-1.8814,-1.8809,-1.8862,-1.8853,-1.8837,-1.8809,-1.886,-1.888,-1.8888,-1.878,-1.8779,-1.8779,-1.8778,0,0,-1.866,-1.8681,-1.8691,-1.8701,-1.872,-1.8742,-1.8774,-1.8799,-1.8814,-1.8832,-1.8858,-1.8895,-1.8881,-1.8894,-1.8891,-1.8914,-1.8964,-1.8895,-1.8896,-1.8906,-1.9021,-1.9031,-1.904,-1.8956,-1.8958,-1.8959,-1.9019,0,-1.872,-1.8776,-1.8774,-1.8826,-1.8852,-1.8838,-1.8866,-1.8881,-1.8885,-1.8907,-1.8912,-1.8937,-1.8918,-1.8926,-1.8948,-1.8953,-1.8986,-1.8949,-1.898,-1.8981,-1.8974,-1.9051,-1.9062,-1.9117,-1.9027,-1.9028,-1.9029,0,-1.8796,-1.8817,-1.8872,-1.8886,-1.8897,-1.8923,-1.8945,-1.8967,-1.8983,-1.8984,-1.9,-1.8993,-1.9025,-1.8998,-1.9042,-1.9017,-1.903,-1.9034,-1.9036,-1.9038,-1.9007,-1.9053,-1.9135,-1.9143,-1.9041,-1.904,-1.9039,0,-1.8846,-1.8888,-1.8926,-1.8935,-1.8954,-1.8972,-1.898,-1.8995,-1.901,-1.9029,-1.9039,-1.9062,-1.9075,-1.9093,-1.9092,-1.9072,-1.9137,-1.911,-1.9138,-1.9138,-1.915,-1.9149,-1.9235,-1.9162,-1.9161,-1.9161,-1.9161,0,-1.8912,-1.8946,-1.8948,-1.8972,-1.9009,-1.9007,-1.9044,-1.9051,-1.9064,-1.9088,-1.9078,-1.9101,-1.9099,-1.9122,-1.9122,-1.9158,-1.9164,-1.9165,-1.9164,-1.9165,-1.9165,-1.9172,-1.9167,-1.9164,-1.9163,-1.9163,-1.9162,0,-1.8973,-1.8976,-1.9017,-1.9031,-1.9036,-1.9063,-1.9075,-1.9097,-1.9101,-1.9131,-1.9138,-1.9144,-1.917,-1.9172,-1.9203,-1.9202,-1.9246,-1.9242,-1.924,-1.9239,-1.9266,-1.9263,-1.9358,-1.937,-1.9291,-1.9292,-1.9292,0,-1.9014,-1.904,-1.9058,-1.9073,-1.9083,-1.9108,-1.9123,-1.9122,-1.9138,-1.9159,-1.9178,-1.9204,-1.9224,-1.9267,-1.9274,-1.9297,-1.9292,-1.9324,-1.9296,-1.9295,-1.9291,-1.9289,-1.9291,-1.9329,-1.933,-1.9331,-1.9331,0,-1.9086,-1.9087,-1.9109,-1.9132,-1.9151,-1.9169,-1.9186,-1.9199,-1.92,-1.9219,-1.9246,-1.9262,-1.9294,-1.9319,-1.9342,-1.935,-1.9341,-1.9341,-1.9348,-1.9348,-1.9345,-1.9346,-1.9253,-1.9338,-1.9337,-1.9337,-1.9336,-1.9336,-1.9138,-1.916,-1.9175,-1.92,-1.9213,-1.9229,-1.9251,-1.9257,-1.928,-1.9305,-1.9304,-1.9334,-1.9349,-1.9379,-1.9389,-1.9412,-1.9401,-1.9413,-1.9415,-1.9417,-1.9419,-1.9344,-1.9417,-1.9417,-1.9416,-1.9416,-1.9416,0,-1.9207,-1.9217,-1.9241,-1.9265,-1.9285,-1.9275,-1.9293,-1.931,-1.9337,-1.9353,-1.9373,-1.9404,-1.9429,-1.9438,-1.9462,-1.9478,-1.9475,-1.9485,-1.9482,-1.9484,-1.9429,-1.9419,-1.9487,-1.9487,-1.9487,-1.9487,-1.9487,-1.9487,-1.9246,-1.9282,-1.9285,-1.9328,-1.9337,-1.9366,-1.9377,-1.9392,-1.9404,-1.944,-1.946,-1.9466,-1.9479,-1.9504,-1.9526,-1.9528,-1.9536,-1.9548,-1.9548,-1.9495,-1.9488,-1.9481,-1.9472,-1.955,-1.955,-1.9601,-1.9602,-1.9602]},{"header":{"parameterUnit":"m.s-1","parameterCategory":1,"la1":30.2991,"la2":30.254,"lo1":-89.0895,"lo2":-89.0444,"dy":0.0017,"dx":0.0017,"nx":28,"ny":28,"refTime":"2026-02-10T09:00:00:Z","depth":0,"parameterNumber":3,"parameterNumberName":"V-component_of_WINDS"},"data":[0,0,0,0,0,0,0,0,0,0,0,0,0,0,0,0,0,0,0,0,0,0,0,0,0,0,0,0,0,0,0,0,0,0,0,0,0,0,0,0,0,0,0,0,0,0,0,0,0,0,0,0,0,0,0,0,0,0,0.5835,0.5835,0,0.5899,0.59,0.59,0.5948,0.5949,0.5949,0.595,0.6015,0.6016,0.6018,0,0,0,0,0,0,0,0,0,0,0,0,0,0.5755,0.5756,0.5835,0.5835,0.5836,0.5899,0.59,0.5901,0.5948,0.5949,0.5949,0.595,0.6015,0.6016,0.6018,0,0,0,0,0,0,0,0,0,0,0,0,0,0.5801,0.5756,0.5835,0.5868,0.5871,0.5899,0.59,0.5901,0.5948,0.5949,0.595,0.595,0.6014,0.6016,0.6018,0.6018,0,0,0.6024,0.6025,0,0,0,0,0,0,0,0,0.5798,0.5804,0.5862,0.5865,0.587,0.5916,0.5896,0.594,0.5948,0.5919,0.595,0.595,0.5982,0.5986,0.5997,0.6021,0.6024,0.6024,0.6026,0.6026,0.6027,0,0,0,0,0,0,0,0.5795,0.5802,0.586,0.5863,0.5867,0.588,0.5887,0.5904,0.5946,0.5922,0.5925,0.5932,0.5984,0.5995,0.5999,0.6025,0.6024,0.6026,0.6027,0.6028,0.6054,0.6054,0,0,0,0,0,0,0.5787,0.5799,0.5858,0.5862,0.5835,0.5881,0.5889,0.5901,0.5946,0.5953,0.5932,0.5934,0.5991,0.5997,0.6001,0.6006,0.6026,0.6028,0.603,0.6055,0.6054,0.6054,0,0,0,0,0,0,0.5785,0.5792,0.5856,0.5831,0.584,0.5881,0.5894,0.5902,0.5913,0.5953,0.5961,0.5935,0.5992,0.5999,0.6014,0.6009,0.6029,0.6031,0.6055,0.6055,0.6054,0.6014,0,0,0,0,0,0,0.5782,0.5791,0.579,0.5831,0.5842,0.5866,0.5894,0.5902,0.5916,0.592,0.5959,0.5966,0.5993,0.6011,0.6016,0.6012,0.6033,0.6056,0.6055,0.6054,0.6016,0.6012,0.6008,0,0,0,0,0,0.5779,0.5776,0.579,0.5797,0.5842,0.5866,0.5872,0.5903,0.5915,0.5916,0.5943,0.5965,0.6008,0.6012,0.6018,0.6015,0.6056,0.6055,0.6054,0.6017,0.6012,0.6008,0,0,0,0,0,0,0.5733,0.5782,0.5798,0.5807,0.5832,0.5874,0.5876,0.5897,0.5918,0.5921,0.5959,0.5967,0.5979,0.5999,0.6001,0.6018,0.6035,0.6035,0.6005,0.6001,0.5997,0.5993,0.6034,0,0,0,0,0,0.5724,0.5739,0.5781,0.5785,0.5797,0.5834,0.5845,0.5868,0.5895,0.5905,0.5933,0.5959,0.5979,0.5991,0.6011,0.6019,0.6029,0.602,0.6016,0.6013,0.6012,0.602,0.6017,0.605,0.605,0.605,0,0,0.5705,0.5734,0.574,0.5777,0.5798,0.5814,0.5842,0.5857,0.5869,0.5908,0.5925,0.5946,0.5977,0.5989,0.5996,0.6005,0.6006,0.6011,0.6008,0.601,0.6019,0.6016,0.6013,0.6049,0.6049,0.6049,0,0,0.5679,0.5701,0.5709,0.573,0.5764,0.5789,0.579,0.5829,0.5845,0.5863,0.5893,0.5908,0.5941,0.5963,0.5978,0.5963,0.5985,0.5968,0.5949,0.5956,0.5953,0.5951,0.5948,0.5946,0.5968,0.5968,0.5968,0,0.5651,0.5676,0.571,0.5723,0.5739,0.5775,0.5784,0.5803,0.5841,0.5851,0.5862,0.5905,0.5929,0.5948,0.5944,0.5955,0.5959,0.5964,0.5951,0.5949,0.5948,0.5945,0.5943,0.5966,0.5966,0.5966,0.5966,0,0.5641,0.5658,0.566,0.5697,0.5713,0.5723,0.576,0.5772,0.5793,0.5817,0.5836,0.5866,0.5894,0.59,0.592,0.5922,0.5928,0.5944,0.5962,0.5942,0.594,0.5939,0.5963,0.5963,0.5964,0.5964,0,0,0.5587,0.5644,0.5644,0.5662,0.5702,0.5716,0.5729,0.5757,0.5768,0.5793,0.5806,0.5834,0.5851,0.5868,0.5891,0.5897,0.5886,0.5914,0.5915,0.5909,0.5893,0.5881,0.5879,0.5901,0.5901,0.59,0.5891,0,0.5568,0.5594,0.5626,0.5641,0.5658,0.5694,0.5706,0.5732,0.5756,0.5774,0.58,0.582,0.5839,0.585,0.5858,0.5886,0.5884,0.5887,0.5914,0.5915,0.5906,0.5877,0.5864,0.5853,0.589,0.589,0.5889,0,0.555,0.5574,0.5591,0.5632,0.5641,0.5651,0.568,0.5697,0.5728,0.5745,0.5766,0.5791,0.5808,0.5824,0.5849,0.5851,0.5864,0.588,0.588,0.5885,0.5901,0.5882,0.5851,0.5849,0.5888,0.5888,0.5888,0,0.551,0.5548,0.5564,0.5578,0.5625,0.5632,0.5652,0.5684,0.57,0.5726,0.5736,0.5764,0.5779,0.58,0.5833,0.5841,0.5855,0.5873,0.587,0.5869,0.5872,0.5871,0.5843,0.5878,0.5878,0.5878,0.5878,0,0.5487,0.5496,0.5547,0.5556,0.5569,0.5606,0.5617,0.5641,0.5669,0.5685,0.5717,0.5731,0.5774,0.5793,0.5819,0.5837,0.5843,0.5858,0.5865,0.5856,0.5854,0.5865,0.5867,0.5878,0.5878,0.5878,0.5878,0,0.5445,0.5479,0.5499,0.5543,0.5554,0.5562,0.56,0.5611,0.5637,0.5657,0.5664,0.5704,0.5729,0.5764,0.5799,0.5817,0.5832,0.5842,0.5821,0.5825,0.5822,0.5822,0.58,0.58,0.5834,0.5834,0.5833,0,0.5428,0.5436,0.5482,0.5495,0.5514,0.5535,0.5551,0.5589,0.5605,0.5642,0.565,0.5677,0.5701,0.5739,0.5773,0.58,0.5812,0.5803,0.5817,0.5808,0.5814,0.5814,0.5815,0.58,0.5799,0.5799,0.5798,0,0.5395,0.5412,0.5435,0.5464,0.5483,0.5507,0.5533,0.5542,0.5586,0.5602,0.5628,0.5647,0.5684,0.5711,0.5744,0.5766,0.579,0.5794,0.5795,0.5786,0.5774,0.5782,0.5813,0.5794,0.5795,0.5795,0.5795,0.5795,0.5367,0.5376,0.5411,0.5435,0.5459,0.5483,0.5497,0.5525,0.5548,0.5581,0.5602,0.5627,0.5661,0.5707,0.5728,0.5749,0.5759,0.576,0.5761,0.5761,0.5758,0.577,0.5755,0.5755,0.5755,0.5756,0.5756,0,0.5337,0.5361,0.5383,0.5419,0.5439,0.546,0.5491,0.5506,0.5529,0.5558,0.5581,0.5612,0.564,0.5676,0.5706,0.5716,0.5728,0.5723,0.5723,0.5728,0.5747,0.5744,0.5713,0.5713,0.5713,0.5713,0.5713,0.5713,0.5324,0.5342,0.5363,0.5395,0.5419,0.5445,0.5461,0.5484,0.5508,0.5541,0.5564,0.5588,0.562,0.5654,0.568,0.569,0.57,0.5692,0.5706,0.5723,0.5726,0.573,0.5727,0.5694,0.5694,0.5685,0.5685,0.5685]}]]